QPF
0.05 0.07 0.07 0.05 0.04 0.05 0.05 0.05 0.05 0.03 0.03 0.03 0.04 0.05 0.07 0.06 0.08 0.06 0.05 0.05 0.07 0.07 0.06 0.06 0.05 0.05 0.03 0.02 0.03 0.04 0.03 0.03 0.03 0.05 0.06 0.06 0.07 0.08
0.04 0.06 0.05 0.04 0.05 0.05 0.07 0.07 0.07 0.06 0.03 0.02 0.02 0.03 0.07 0.08 0.06 0.05 0.05 0.06 0.06 0.06 0.04 0.05 0.05 0.05 0.04 0.03 0.02 0.03 0.03 0.04 0.04 0.05 0.04 0.04 0.03 0.03
0.05 0.05 0.06 0.06 0.06 0.05 0.06 0.06 0.06 0.06 0.04 0.03 0.04 0.04 0.03 0.04 0.05 0.05 0.05 0.05 0.04 0.03 0.03 0.02 0.03 0.03 0.03 0.03 0.04 0.04 0.05 0.06 0.06 0.05 0.04 0.04 0.04 0.03
0.05 0.06 0.05 0.05 0.05 0.05 0.05 0.05 0.05 0.05 0.04 0.04 0.03 0.04 0.03 0.04 0.03 0.03 0.03 0.03 0.03 0.03 0.02 0.01 0.01 0.01 0.02 0.03 0.03 0.03 0.03 0.03 0.03 0.03 0.03 0.03 0.04 0.05
0.05 0.05 0.04 0.05 0.04 0.05 0.06 0.05 0.06 0.06 0.04 0.03 0.03 0.05 0.04 0.04 0.04 0.03 0.02 0.02 0.03 0.03 0.02 0.01 0.01 0.01 0.01 0.01 0.02 0.02 0.02 0.01 0.01 0.01 0.01 0.02 0.02 0.03
0.07 0.06 0.04 0.05 0.06 0.07 0.07 0.05 0.05 0.05 0.04 0.03 0.03 0.04 0.04 0.06 0.06 0.03 0.02 0.03 0.03 0.02 0.01 0.01 0.01 0.01 0.01 0.00 0.00 0.01 0.01 0.01 0.01 0.01 0.01 0.02 0.02 0.03
0.08 0.07 0.06 0.05 0.05 0.05 0.04 0.04 0.05 0.05 0.05 0.05 0.04 0.03 0.03 0.04 0.04 0.04 0.03 0.03 0.03 0.01 0.01 0.01 0.01 0.00 0.00 0.00 0.00 0.00 0.01 0.01 0.01 0.01 0.01 0.01 0.01 0.02
0.06 0.05 0.04 0.04 0.03 0.03 0.03 0.03 0.04 0.03 0.03 0.05 0.04 0.03 0.02 0.03 0.04 0.04 0.04 0.04 0.03 0.02 0.02 0.01 0.02 0.01 0.01 0.01 0.01 0.02 0.03 0.03 0.03 0.02 0.01 0.01 0.01 0.01
0.06 0.06 0.04 0.03 0.03 0.03 0.02 0.03 0.02 0.02 0.03 0.04 0.03 0.02 0.03 0.03 0.04 0.04 0.04 0.04 0.03 0.03 0.03 0.02 0.02 0.01 0.01 0.02 0.02 0.03 0.03 0.04 0.04 0.03 0.03 0.02 0.02 0.01
0.04 0.05 0.05 0.05 0.05 0.05 0.05 0.03 0.02 0.03 0.03 0.03 0.02 0.02 0.03 0.04 0.06 0.05 0.06 0.06 0.04 0.04 0.04 0.04 0.04 0.04 0.03 0.02 0.03 0.03 0.03 0.04 0.03 0.03 0.03 0.02 0.02 0.01
0.04 0.05 0.05 0.06 0.06 0.07 0.06 0.04 0.04 0.03 0.04 0.04 0.02 0.02 0.03 0.04 0.07 0.08 0.08 0.07 0.05 0.05 0.06 0.08 0.07 0.06 0.04 0.02 0.02 0.02 0.03 0.03 0.02 0.02 0.02 0.02 0.01 0.02
0.05 0.05 0.06 0.06 0.05 0.06 0.05 0.04 0.04 0.04 0.04 0.03 0.02 0.02 0.02 0.03 0.05 0.07 0.07 0.07 0.06 0.06 0.07 0.09 0.09 0.08 0.06 0.03 0.03 0.03 0.04 0.04 0.04 0.04 0.03 0.03 0.03 0.02
0.06 0.05 0.05 0.06 0.05 0.06 0.06 0.04 0.04 0.05 0.04 0.03 0.02 0.02 0.03 0.03 0.03 0.04 0.05 0.07 0.09 0.09 0.10 0.11 0.10 0.09 0.09 0.06 0.05 0.05 0.05 0.05 0.05 0.05 0.05 0.04 0.03 0.03
0.08 0.08 0.08 0.09 0.09 0.10 0.08 0.06 0.05 0.05 0.05 0.04 0.02 0.02 0.02 0.04 0.04 0.05 0.06 0.07 0.08 0.09 0.10 0.11 0.09 0.09 0.10 0.07 0.04 0.04 0.05 0.05 0.05 0.05 0.05 0.05 0.04 0.03
0.10 0.12 0.12 0.13 0.13 0.10 0.07 0.05 0.05 0.04 0.04 0.03 0.02 0.02 0.02 0.02 0.02 0.03 0.04 0.06 0.06 0.06 0.07 0.07 0.07 0.08 0.08 0.07 0.06 0.05 0.05 0.06 0.06 0.05 0.04 0.03 0.03 0.03
0.05 0.05 0.04 0.03 0.04 0.04 0.03 0.03 0.04 0.03 0.03 0.03 0.02 0.02 0.02 0.03 0.03 0.04 0.04 0.06 0.06 0.05 0.06 0.06 0.07 0.08 0.08 0.08 0.08 0.06 0.06 0.06 0.06 0.05 0.04 0.04 0.03 0.02
0.04 0.03 0.02 0.02 0.02 0.02 0.02 0.03 0.03 0.03 0.03 0.03 0.03 0.03 0.03 0.04 0.05 0.05 0.06 0.06 0.05 0.04 0.05 0.06 0.08 0.09 0.08 0.07 0.06 0.04 0.04 0.04 0.04 0.04 0.04 0.03 0.03 0.02
0.04 0.03 0.03 0.03 0.03 0.03 0.03 0.02 0.02 0.02 0.04 0.04 0.04 0.04 0.05 0.06 0.06 0.05 0.06 0.05 0.05 0.04 0.04 0.05 0.06 0.07 0.06 0.05 0.04 0.04 0.04 0.03 0.03 0.03 0.03 0.04 0.03 0.03
0.05 0.04 0.04 0.05 0.04 0.04 0.03 0.03 0.03 0.03 0.05 0.06 0.05 0.05 0.05 0.06 0.06 0.05 0.04 0.04 0.03 0.03 0.04 0.06 0.07 0.06 0.06 0.04 0.04 0.04 0.04 0.04 0.04 0.04 0.03 0.03 0.04 0.03
0.08 0.08 0.08 0.07 0.07 0.07 0.07 0.07 0.06 0.05 0.05 0.06 0.06 0.05 0.05 0.05 0.06 0.04 0.04 0.04 0.04 0.04 0.04 0.04 0.05 0.06 0.06 0.05 0.05 0.06 0.07 0.06 0.04 0.04 0.04 0.04 0.05 0.05
0.10 0.12 0.12 0.10 0.12 0.13 0.14 0.15 0.13 0.09 0.07 0.06 0.06 0.07 0.07 0.06 0.05 0.05 0.04 0.04 0.04 0.04 0.04 0.04 0.05 0.07 0.07 0.06 0.06 0.05 0.06 0.08 0.07 0.06 0.06 0.06 0.06 0.06
0.06 0.10 0.15 0.12 0.10 0.10 0.10 0.11 0.11 0.10 0.09 0.08 0.08 0.08 0.09 0.08 0.06 0.06 0.06 0.06 0.05 0.04 0.04 0.04 0.05 0.05 0.06 0.06 0.07 0.08 0.07 0.07 0.10 0.10 0.09 0.07 0.06 0.05
0.04 0.08 0.15 0.15 0.09 0.07 0.05 0.05 0.05 0.05 0.06 0.07 0.07 0.07 0.08 0.08 0.07 0.06 0.06 0.06 0.05 0.04 0.03 0.03 0.03 0.03 0.04 0.04 0.04 0.06 0.07 0.07 0.07 0.07 0.07 0.07 0.07 0.06
MSLP
1012.16 1012.48 1012.80 1013.11 1013.39 1013.62 1013.79 1013.89 1013.93 1013.93 1013.91 1013.89 1013.88 1013.89 1013.93 1014.00 1014.08 1014.18 1014.31 1014.47 1014.68 1014.94 1015.26 1015.65 1016.11 1016.62 1017.17 1017.75 1018.32 1018.88 1019.40 1019.89 1020.33 1020.72 1021.05 1021.32 1021.52 1021.66
1011.60 1011.88 1012.18 1012.47 1012.75 1013.00 1013.20 1013.38 1013.51 1013.62 1013.71 1013.80 1013.89 1013.99 1014.09 1014.19 1014.29 1014.41 1014.53 1014.69 1014.88 1015.14 1015.46 1015.85 1016.30 1016.81 1017.36 1017.92 1018.49 1019.04 1019.56 1020.04 1020.48 1020.88 1021.22 1021.50 1021.72 1021.88
1011.05 1011.29 1011.55 1011.82 1012.08 1012.34 1012.59 1012.82 1013.04 1013.25 1013.46 1013.66 1013.86 1014.05 1014.24 1014.40 1014.55 1014.69 1014.83 1014.99 1015.18 1015.43 1015.74 1016.12 1016.55 1017.04 1017.56 1018.10 1018.64 1019.16 1019.66 1020.13 1020.57 1020.96 1021.32 1021.62 1021.87 1022.07
1010.49 1010.70 1010.91 1011.15 1011.39 1011.65 1011.92 1012.20 1012.49 1012.79 1013.10 1013.41 1013.72 1014.02 1014.29 1014.52 1014.73 1014.92 1015.09 1015.28 1015.48 1015.73 1016.03 1016.39 1016.80 1017.26 1017.75 1018.25 1018.74 1019.23 1019.70 1020.14 1020.57 1020.96 1021.33 1021.67 1021.97 1022.21
1009.91 1010.07 1010.25 1010.44 1010.67 1010.91 1011.19 1011.50 1011.84 1012.21 1012.60 1013.00 1013.41 1013.80 1014.16 1014.48 1014.76 1015.01 1015.24 1015.46 1015.68 1015.95 1016.25 1016.60 1016.99 1017.41 1017.86 1018.32 1018.78 1019.22 1019.66 1020.08 1020.49 1020.89 1021.28 1021.65 1021.99 1022.29
1009.29 1009.41 1009.55 1009.71 1009.90 1010.13 1010.40 1010.72 1011.08 1011.49 1011.94 1012.41 1012.89 1013.36 1013.80 1014.21 1014.57 1014.89 1015.18 1015.45 1015.72 1016.01 1016.33 1016.68 1017.06 1017.46 1017.88 1018.30 1018.72 1019.13 1019.54 1019.95 1020.35 1020.76 1021.17 1021.57 1021.95 1022.31
1008.64 1008.71 1008.81 1008.94 1009.10 1009.30 1009.56 1009.87 1010.24 1010.66 1011.13 1011.64 1012.17 1012.70 1013.21 1013.69 1014.12 1014.52 1014.88 1015.22 1015.55 1015.88 1016.23 1016.59 1016.97 1017.37 1017.77 1018.17 1018.57 1018.97 1019.36 1019.76 1020.17 1020.59 1021.01 1021.44 1021.86 1022.25
1007.97 1008.01 1008.07 1008.17 1008.30 1008.48 1008.71 1008.99 1009.34 1009.75 1010.22 1010.74 1011.28 1011.85 1012.40 1012.94 1013.44 1013.91 1014.35 1014.75 1015.15 1015.53 1015.92 1016.31 1016.71 1017.12 1017.52 1017.93 1018.32 1018.72 1019.12 1019.53 1019.95 1020.39 1020.84 1021.28 1021.72 1022.13
1007.33 1007.34 1007.38 1007.45 1007.56 1007.71 1007.90 1008.15 1008.46 1008.84 1009.28 1009.77 1010.31 1010.88 1011.46 1012.03 1012.58 1013.11 1013.61 1014.08 1014.53 1014.98 1015.41 1015.84 1016.27 1016.70 1017.13 1017.55 1017.97 1018.39 1018.82 1019.25 1019.70 1020.17 1020.64 1021.10 1021.55 1021.97
1006.78 1006.77 1006.79 1006.84 1006.93 1007.04 1007.20 1007.41 1007.67 1007.99 1008.37 1008.82 1009.32 1009.87 1010.45 1011.03 1011.61 1012.18 1012.73 1013.26 1013.76 1014.25 1014.73 1015.20 1015.67 1016.13 1016.59 1017.04 1017.50 1017.96 1018.43 1018.91 1019.41 1019.91 1020.41 1020.89 1021.35 1021.76
1006.37 1006.35 1006.36 1006.40 1006.46 1006.55 1006.67 1006.82 1007.01 1007.26 1007.58 1007.96 1008.41 1008.91 1009.46 1010.03 1010.62 1011.20 1011.78 1012.34 1012.89 1013.41 1013.93 1014.43 1014.92 1015.42 1015.91 1016.40 1016.90 1017.42 1017.94 1018.48 1019.03 1019.58 1020.12 1020.64 1021.11 1021.52
1006.13 1006.10 1006.11 1006.14 1006.18 1006.24 1006.31 1006.40 1006.52 1006.70 1006.93 1007.23 1007.61 1008.05 1008.55 1009.09 1009.66 1010.24 1010.83 1011.40 1011.96 1012.51 1013.04 1013.56 1014.07 1014.59 1015.11 1015.64 1016.18 1016.75 1017.33 1017.94 1018.55 1019.16 1019.75 1020.31 1020.80 1021.23
1006.03 1006.01 1006.03 1006.05 1006.07 1006.09 1006.11 1006.14 1006.19 1006.28 1006.43 1006.65 1006.94 1007.31 1007.75 1008.24 1008.78 1009.34 1009.90 1010.47 1011.03 1011.57 1012.10 1012.63 1013.15 1013.67 1014.21 1014.76 1015.35 1015.96 1016.60 1017.26 1017.94 1018.62 1019.27 1019.88 1020.42 1020.87
1006.05 1006.05 1006.07 1006.08 1006.08 1006.07 1006.04 1006.00 1005.98 1005.99 1006.05 1006.18 1006.39 1006.68 1007.05 1007.49 1007.97 1008.49 1009.03 1009.57 1010.11 1010.64 1011.15 1011.66 1012.17 1012.69 1013.24 1013.80 1014.41 1015.06 1015.75 1016.47 1017.20 1017.94 1018.66 1019.33 1019.92 1020.43
1006.12 1006.14 1006.16 1006.16 1006.14 1006.09 1006.01 1005.92 1005.82 1005.76 1005.74 1005.80 1005.93 1006.15 1006.44 1006.81 1007.24 1007.71 1008.20 1008.71 1009.21 1009.71 1010.20 1010.69 1011.18 1011.69 1012.23 1012.80 1013.42 1014.09 1014.81 1015.57 1016.36 1017.15 1017.93 1018.66 1019.32 1019.89
1006.17 1006.20 1006.22 1006.22 1006.17 1006.08 1005.95 1005.81 1005.66 1005.53 1005.45 1005.44 1005.50 1005.65 1005.88 1006.19 1006.55 1006.96 1007.40 1007.86 1008.33 1008.79 1009.25 1009.72 1010.20 1010.69 1011.22 1011.79 1012.41 1013.09 1013.83 1014.62 1015.44 1016.28 1017.12 1017.91 1018.64 1019.28
1006.16 1006.19 1006.20 1006.16 1006.09 1005.96 1005.80 1005.61 1005.42 1005.25 1005.12 1005.05 1005.06 1005.15 1005.32 1005.56 1005.87 1006.22 1006.61 1007.02 1007.44 1007.87 1008.31 1008.76 1009.23 1009.72 1010.24 1010.81 1011.44 1012.12 1012.87 1013.68 1014.53 1015.40 1016.28 1017.12 1017.91 1018.62
1006.04 1006.05 1006.02 1005.96 1005.84 1005.68 1005.48 1005.27 1005.05 1004.86 1004.70 1004.60 1004.58 1004.62 1004.74 1004.92 1005.16 1005.46 1005.79 1006.15 1006.54 1006.95 1007.37 1007.81 1008.28 1008.78 1009.32 1009.90 1010.54 1011.24 1012.00 1012.81 1013.68 1014.57 1015.47 1016.36 1017.20 1017.96
1005.81 1005.77 1005.70 1005.58 1005.42 1005.22 1005.00 1004.77 1004.55 1004.35 1004.18 1004.07 1004.02 1004.03 1004.11 1004.24 1004.42 1004.66 1004.94 1005.26 1005.61 1006.00 1006.42 1006.88 1007.37 1007.89 1008.46 1009.07 1009.74 1010.46 1011.23 1012.06 1012.94 1013.84 1014.77 1015.68 1016.56 1017.37
1005.49 1005.38 1005.23 1005.04 1004.83 1004.60 1004.35 1004.12 1003.90 1003.71 1003.56 1003.45 1003.40 1003.39 1003.42 1003.51 1003.64 1003.82 1004.05 1004.33 1004.66 1005.04 1005.48 1005.96 1006.48 1007.06 1007.68 1008.34 1009.05 1009.80 1010.60 1011.45 1012.34 1013.26 1014.19 1015.12 1016.03 1016.89
1005.10 1004.88 1004.64 1004.37 1004.10 1003.82 1003.57 1003.33 1003.13 1002.97 1002.85 1002.76 1002.71 1002.69 1002.70 1002.75 1002.83 1002.97 1003.15 1003.39 1003.71 1004.09 1004.54 1005.06 1005.64 1006.27 1006.95 1007.68 1008.45 1009.25 1010.09 1010.97 1011.87 1012.81 1013.76 1014.70 1015.64 1016.53
1004.64 1004.31 1003.96 1003.60 1003.26 1002.96 1002.68 1002.46 1002.29 1002.16 1002.07 1002.00 1001.97 1001.95 1001.94 1001.96 1002.01 1002.10 1002.25 1002.46 1002.76 1003.15 1003.62 1004.19 1004.82 1005.52 1006.28 1007.08 1007.92 1008.78 1009.67 1010.58 1011.51 1012.46 1013.43 1014.39 1015.35 1016.28
1004.12 1003.68 1003.22 1002.78 1002.38 1002.04 1001.76 1001.55 1001.40 1001.31 1001.25 1001.22 1001.20 1001.19 1001.18 1001.17 1001.19 1001.25 1001.37 1001.56 1001.85 1002.25 1002.75 1003.35 1004.05 1004.82 1005.65 1006.52 1007.42 1008.35 1009.28 1010.23 1011.19 1012.17 1013.15 1014.14 1015.12 1016.08
Thickness
5753 5752 5749 5749 5748 5747 5744 5741 5733 5726 5728 5735 5738 5741 5741 5740 5739 5738 5736 5736 5735 5734 5732 5731 5730 5729 5727 5726 5724 5722 5720 5719 5717 5715 5713 5711 5709 5708
5751 5749 5748 5747 5746 5745 5743 5741 5738 5732 5727 5732 5735 5738 5738 5737 5736 5734 5733 5732 5731 5730 5729 5727 5726 5724 5723 5722 5720 5719 5717 5715 5713 5711 5709 5707 5706 5704
5748 5747 5746 5745 5744 5742 5741 5739 5737 5733 5728 5731 5733 5734 5733 5732 5731 5730 5729 5727 5726 5725 5724 5722 5721 5720 5719 5717 5716 5714 5712 5710 5708 5706 5704 5702 5701 5700
5745 5744 5742 5742 5740 5739 5738 5736 5734 5733 5729 5726 5727 5728 5728 5728 5726 5724 5724 5723 5722 5721 5719 5717 5716 5714 5713 5712 5710 5709 5707 5705 5703 5701 5699 5697 5696 5694
5744 5742 5741 5739 5737 5736 5734 5733 5731 5731 5728 5724 5722 5723 5723 5722 5720 5719 5718 5717 5717 5715 5713 5712 5710 5709 5707 5706 5704 5703 5701 5700 5698 5696 5694 5693 5691 5689
5742 5740 5739 5737 5735 5733 5731 5729 5727 5725 5723 5720 5718 5717 5716 5716 5714 5712 5710 5710 5710 5710 5708 5707 5705 5703 5702 5700 5698 5697 5695 5694 5692 5691 5689 5687 5686 5684
5737 5736 5736 5735 5734 5731 5728 5725 5722 5720 5717 5714 5712 5711 5710 5708 5707 5707 5705 5704 5704 5704 5702 5701 5699 5697 5695 5694 5692 5691 5689 5688 5687 5685 5683 5681 5679 5677
5730 5729 5729 5728 5728 5726 5724 5722 5720 5716 5712 5710 5708 5706 5706 5705 5704 5702 5699 5696 5694 5698 5695 5694 5693 5691 5690 5689 5687 5685 5684 5682 5680 5678 5677 5675 5672 5670
5724 5723 5723 5722 5720 5718 5716 5715 5714 5713 5712 5708 5704 5703 5702 5702 5699 5695 5694 5692 5691 5692 5689 5687 5687 5685 5685 5684 5682 5679 5677 5675 5673 5672 5670 5668 5666 5663
5717 5716 5714 5713 5713 5710 5708 5706 5705 5705 5704 5703 5702 5702 5701 5699 5696 5693 5690 5688 5687 5687 5685 5680 5680 5679 5680 5678 5676 5673 5671 5669 5666 5665 5663 5661 5659 5657
5709 5709 5708 5706 5705 5703 5700 5697 5695 5696 5697 5696 5696 5695 5695 5693 5691 5686 5681 5678 5676 5678 5678 5675 5673 5671 5671 5670 5669 5666 5664 5661 5659 5657 5656 5654 5651 5649
5700 5700 5700 5698 5696 5694 5691 5688 5685 5686 5686 5687 5686 5686 5685 5684 5683 5680 5677 5672 5669 5669 5671 5668 5666 5662 5660 5661 5660 5659 5656 5654 5652 5650 5648 5646 5643 5640
5690 5690 5690 5689 5687 5685 5683 5681 5680 5679 5678 5677 5676 5676 5676 5675 5675 5674 5672 5669 5665 5664 5666 5662 5658 5655 5652 5651 5650 5650 5648 5646 5643 5641 5639 5637 5635 5632
5681 5681 5681 5680 5678 5676 5674 5674 5673 5671 5668 5667 5666 5665 5665 5665 5666 5666 5665 5664 5662 5661 5660 5657 5653 5649 5644 5641 5640 5640 5639 5637 5635 5633 5631 5628 5625 5623
5672 5672 5670 5669 5667 5666 5665 5664 5662 5660 5658 5656 5656 5656 5657 5657 5657 5656 5656 5655 5654 5653 5651 5649 5647 5643 5640 5636 5634 5631 5629 5628 5626 5624 5622 5619 5616 5613
5660 5660 5659 5658 5657 5656 5655 5653 5652 5651 5649 5648 5648 5648 5648 5646 5646 5645 5644 5643 5641 5641 5642 5641 5639 5636 5632 5630 5627 5624 5622 5620 5618 5615 5613 5610 5608 5605
5648 5646 5645 5644 5644 5643 5642 5642 5641 5640 5639 5638 5637 5637 5636 5636 5635 5635 5634 5632 5630 5629 5629 5630 5629 5628 5627 5623 5619 5617 5614 5612 5610 5607 5603 5601 5599 5597
5636 5634 5633 5633 5633 5632 5631 5631 5631 5630 5630 5629 5628 5628 5626 5625 5625 5624 5623 5622 5620 5619 5619 5619 5618 5616 5613 5613 5613 5610 5606 5603 5601 5599 5596 5592 5590 5589
5625 5623 5622 5622 5622 5622 5621 5620 5620 5620 5619 5619 5619 5619 5617 5616 5615 5614 5613 5612 5611 5610 5610 5610 5608 5606 5602 5602 5603 5604 5600 5596 5593 5590 5588 5586 5584 5583
5614 5613 5612 5611 5612 5612 5611 5611 5610 5610 5609 5609 5608 5609 5608 5607 5606 5605 5604 5603 5602 5600 5600 5600 5599 5598 5596 5595 5594 5593 5593 5589 5586 5583 5580 5577 5575 5574
5604 5603 5603 5602 5602 5602 5602 5601 5601 5600 5599 5598 5598 5598 5598 5597 5596 5596 5595 5594 5592 5591 5590 5590 5591 5591 5589 5586 5583 5582 5582 5581 5580 5577 5572 5567 5564 5562
5594 5594 5593 5593 5593 5592 5592 5591 5590 5590 5589 5588 5588 5589 5589 5588 5587 5586 5585 5583 5582 5582 5581 5581 5581 5579 5577 5575 5573 5572 5570 5570 5569 5568 5566 5564 5559 5556
5585 5585 5584 5583 5583 5582 5583 5583 5582 5580 5579 5579 5579 5579 5579 5578 5577 5576 5575 5574 5573 5572 5571 5570 5569 5567 5566 5565 5563 5561 5560 5558 5556 5555 5554 5555 5555 5554